• în România
  • Lista ţărilor
  • Pe 7 zile
  • Temperatura apei
  • Hartă satelitară
  • Meteo pe hartă
  • Widget-uri
  • user-avatar
    Intrare

    Meteo pe oră la Yevlakh

    Astăzi, 28 Martie, Marţi

    Timp Temperatura Precipitaţii Vânt Presiune Umiditate
    00:00 +13°C° 0 mm 1 m/s 756 mmHg 53%
    01:00 +13°C° 0 mm 1 m/s 756 mmHg 54%
    02:00 +12°C° 0 mm 1 m/s 756 mmHg 54%
    03:00 +12°C° 0 mm 1 m/s 756 mmHg 55%
    04:00 +12°C° 0 mm 2 m/s 757 mmHg 57%
    05:00 +10°C° 0 mm 3 m/s 757 mmHg 60%
    06:00 +10°C° 0 mm 4 m/s 758 mmHg 63%
    07:00 +10°C° 0 mm 5 m/s 758 mmHg 59%
    08:00 +11°C° 0 mm 7 m/s 759 mmHg 55%
    09:00 +12°C° 0 mm 8 m/s 760 mmHg 50%
    10:00 +13°C° 0,1 mm 8 m/s 760 mmHg 47%
    11:00 +13°C° 0,1 mm 8 m/s 760 mmHg 43%
    12:00 +15°C° 0,1 mm 8 m/s 760 mmHg 39%
    13:00 +15°C° 0,1 mm 7 m/s 760 mmHg 39%
    14:00 +15°C° 0,1 mm 6 m/s 760 mmHg 38%
    15:00 +15°C° 0,1 mm 6 m/s 760 mmHg 37%
    16:00 +14°C° 0,2 mm 4 m/s 760 mmHg 41%
    17:00 +13°C° 0,2 mm 3 m/s 761 mmHg 46%
    18:00 +13°C° 0,2 mm 1 m/s 761 mmHg 50%
    19:00 +12°C° 0 mm 2 m/s 761 mmHg 51%
    20:00 +10°C° 0 mm 2 m/s 762 mmHg 52%
    21:00 +9°C° 0 mm 2 m/s 762 mmHg 54%
    22:00 +9°C° 0 mm 2 m/s 762 mmHg 54%
    23:00 +8°C° 0 mm 3 m/s 762 mmHg 55%

    Mâine, 29 Martie, Miercuri

    Timp Temperatura Precipitaţii Vânt Presiune Umiditate
    00:00 +8°C° 0 mm 3 m/s 762 mmHg 56%
    01:00 +7°C° 0 mm 4 m/s 761 mmHg 53%
    02:00 +7°C° 0 mm 5 m/s 761 mmHg 50%
    03:00 +7°C° 0 mm 6 m/s 761 mmHg 48%
    04:00 +7°C° 0 mm 6 m/s 761 mmHg 46%
    05:00 +7°C° 0 mm 6 m/s 761 mmHg 45%
    06:00 +7°C° 0 mm 6 m/s 762 mmHg 44%
    07:00 +9°C° 0 mm 7 m/s 761 mmHg 39%
    08:00 +11°C° 0 mm 7 m/s 761 mmHg 35%
    09:00 +13°C° 0 mm 8 m/s 761 mmHg 31%
    10:00 +15°C° 0 mm 8 m/s 761 mmHg 29%
    11:00 +16°C° 0 mm 7 m/s 761 mmHg 28%
    12:00 +18°C° 0 mm 7 m/s 761 mmHg 26%
    13:00 +18°C° 0 mm 7 m/s 761 mmHg 25%
    14:00 +20°C° 0 mm 7 m/s 761 mmHg 25%
    15:00 +20°C° 0 mm 7 m/s 761 mmHg 25%
    16:00 +17°C° 0 mm 5 m/s 761 mmHg 29%
    17:00 +17°C° 0 mm 4 m/s 762 mmHg 32%
    18:00 +15°C° 0 mm 2 m/s 763 mmHg 36%
    19:00 +14°C° 0 mm 2 m/s 764 mmHg 40%
    20:00 +12°C° 0 mm 2 m/s 765 mmHg 44%
    21:00 +10°C° 0 mm 2 m/s 766 mmHg 48%
    22:00 +9°C° 0 mm 2 m/s 766 mmHg 57%
    23:00 +8°C° 0 mm 3 m/s 767 mmHg 66%

    Poimâine, 30 Martie, Joi

    Timp Temperatura Precipitaţii Vânt Presiune Umiditate
    00:00 +7°C° 0 mm 3 m/s 767 mmHg 74%
    01:00 +7°C° 0 mm 2 m/s 767 mmHg 77%
    02:00 +7°C° 0 mm 2 m/s 767 mmHg 81%
    03:00 +7°C° 0 mm 1 m/s 768 mmHg 84%
    04:00 +7°C° 0 mm 1 m/s 768 mmHg 84%
    05:00 +7°C° 0 mm 1 m/s 768 mmHg 85%
    06:00 +6°C° 0 mm 1 m/s 768 mmHg 86%
    07:00 +8°C° 0 mm 1 m/s 768 mmHg 77%
    08:00 +9°C° 0 mm 2 m/s 768 mmHg 68%
    09:00 +12°C° 0 mm 2 m/s 767 mmHg 60%
    10:00 +13°C° 0 mm 2 m/s 767 mmHg 56%
    11:00 +14°C° 0 mm 2 m/s 766 mmHg 52%
    12:00 +16°C° 0 mm 2 m/s 765 mmHg 49%
    13:00 +16°C° 0 mm 2 m/s 764 mmHg 47%
    14:00 +17°C° 0 mm 2 m/s 763 mmHg 46%
    15:00 +17°C° 0 mm 2 m/s 762 mmHg 44%
    16:00 +16°C° 0 mm 1 m/s 762 mmHg 50%
    17:00 +14°C° 0 mm 1 m/s 762 mmHg 55%
    18:00 +13°C° 0 mm 1 m/s 762 mmHg 61%
    19:00 +12°C° 0 mm 1 m/s 762 mmHg 63%
    20:00 +11°C° 0 mm 1 m/s 763 mmHg 66%
    21:00 +11°C° 0 mm 1 m/s 763 mmHg 69%
    22:00 +10°C° 0 mm 1 m/s 763 mmHg 67%
    23:00 +9°C° 0 mm 2 m/s 762 mmHg 66%

    31 Martie, Vineri

    Timp Temperatura Precipitaţii Vânt Presiune Umiditate
    00:00 +9°C° 0 mm 2 m/s 762 mmHg 65%
    01:00 +9°C° 0 mm 2 m/s 762 mmHg 62%
    02:00 +9°C° 0 mm 3 m/s 761 mmHg 60%
    03:00 +9°C° 0 mm 3 m/s 761 mmHg 58%
    04:00 +9°C° 0 mm 3 m/s 761 mmHg 56%
    05:00 +9°C° 0 mm 3 m/s 762 mmHg 54%
    06:00 +9°C° 0 mm 3 m/s 762 mmHg 52%
    07:00 +12°C° 0 mm 4 m/s 762 mmHg 45%
    08:00 +14°C° 0 mm 4 m/s 762 mmHg 38%
    09:00 +18°C° 0 mm 4 m/s 762 mmHg 32%
    10:00 +19°C° 0 mm 4 m/s 761 mmHg 30%
    11:00 +20°C° 0 mm 4 m/s 761 mmHg 27%
    12:00 +22°C° 0 mm 4 m/s 761 mmHg 25%
    13:00 +22°C° 0 mm 4 m/s 761 mmHg 25%
    14:00 +22°C° 0 mm 3 m/s 761 mmHg 25%
    15:00 +22°C° 0 mm 3 m/s 761 mmHg 24%
    16:00 +20°C° 0 mm 2 m/s 762 mmHg 29%
    17:00 +19°C° 0 mm 2 m/s 763 mmHg 33%
    18:00 +18°C° 0 mm 1 m/s 763 mmHg 38%
    19:00 +16°C° 0,1 mm 3 m/s 764 mmHg 45%
    20:00 +14°C° 0,1 mm 4 m/s 765 mmHg 52%
    21:00 +13°C° 0,1 mm 5 m/s 766 mmHg 59%
    22:00 +12°C° 0,3 mm 5 m/s 767 mmHg 66%
    23:00 +10°C° 0,3 mm 6 m/s 767 mmHg 73%

    1 Aprilie, Sâmbătă

    Timp Temperatura Precipitaţii Vânt Presiune Umiditate
    00:00 +9°C° 0,3 mm 6 m/s 767 mmHg 80%
    01:00 +8°C° 0,4 mm 6 m/s 767 mmHg 80%
    02:00 +8°C° 0,4 mm 6 m/s 768 mmHg 81%
    03:00 +7°C° 0,4 mm 6 m/s 768 mmHg 82%
    04:00 +7°C° 0,3 mm 5 m/s 768 mmHg 82%
    05:00 +6°C° 0,3 mm 5 m/s 769 mmHg 81%
    06:00 +6°C° 0,3 mm 5 m/s 769 mmHg 81%
    07:00 +6°C° 0,1 mm 5 m/s 769 mmHg 78%
    08:00 +6°C° 0,1 mm 5 m/s 769 mmHg 75%
    09:00 +7°C° 0,1 mm 5 m/s 768 mmHg 72%
    10:00 +7°C° 0 mm 5 m/s 768 mmHg 70%
    11:00 +7°C° 0 mm 5 m/s 768 mmHg 68%
    12:00 +8°C° 0 mm 5 m/s 768 mmHg 66%
    13:00 +8°C° 0,1 mm 4 m/s 767 mmHg 66%
    14:00 +8°C° 0,1 mm 4 m/s 767 mmHg 66%
    15:00 +8°C° 0,1 mm 4 m/s 766 mmHg 66%
    16:00 +8°C° 0,1 mm 3 m/s 766 mmHg 69%
    17:00 +8°C° 0,1 mm 3 m/s 766 mmHg 73%
    18:00 +7°C° 0,1 mm 2 m/s 766 mmHg 76%
    19:00 +7°C° 0 mm 2 m/s 767 mmHg 79%
    20:00 +6°C° 0 mm 2 m/s 767 mmHg 82%
    21:00 +7°C° 0 mm 1 m/s 767 mmHg 85%
    22:00 +6°C° 0 mm 1 m/s 766 mmHg 88%
    23:00 +5°C° 0 mm 1 m/s 765 mmHg 91%

    2 Aprilie, Duminică

    Timp Temperatura Precipitaţii Vânt Presiune Umiditate
    00:00 +5°C° 0 mm 1 m/s 765 mmHg 95%
    01:00 +5°C° 0 mm 1 m/s 765 mmHg 94%
    02:00 +5°C° 0 mm 1 m/s 764 mmHg 94%
    03:00 +5°C° 0 mm 1 m/s 764 mmHg 94%
    04:00 +5°C° 0 mm 1 m/s 764 mmHg 93%
    05:00 +5°C° 0 mm 1 m/s 764 mmHg 92%
    06:00 +4°C° 0 mm 0 m/s 763 mmHg 91%
    07:00 +6°C° 0 mm 0 m/s 763 mmHg 85%
    08:00 +8°C° 0 mm 1 m/s 763 mmHg 78%
    09:00 +10°C° 0 mm 1 m/s 763 mmHg 72%
    10:00 +11°C° 0,2 mm 1 m/s 762 mmHg 69%
    11:00 +12°C° 0,2 mm 1 m/s 762 mmHg 66%
    12:00 +12°C° 0,2 mm 1 m/s 762 mmHg 63%
    13:00 +13°C° 0,2 mm 1 m/s 762 mmHg 64%
    14:00 +13°C° 0,2 mm 1 m/s 761 mmHg 65%
    15:00 +13°C° 0,2 mm 2 m/s 761 mmHg 66%
    16:00 +12°C° 0 mm 2 m/s 762 mmHg 71%
    17:00 +10°C° 0 mm 2 m/s 762 mmHg 75%
    18:00 +10°C° 0 mm 2 m/s 763 mmHg 79%
    19:00 +9°C° 0 mm 2 m/s 763 mmHg 81%
    20:00 +9°C° 0 mm 2 m/s 764 mmHg 84%
    21:00 +8°C° 0 mm 2 m/s 765 mmHg 86%
    22:00 +8°C° 0 mm 2 m/s 765 mmHg 86%
    23:00 +7°C° 0 mm 2 m/s 765 mmHg 87%
    Arată mai mult